Location: Observatoire
(46.1952°N, 5.3391°E)
Time: 09:47:12
(UTC+01:00)

Transit 4A - All Passes

Search period start: 16 February 2026 00:00
Search period end: 26 February 2026 00:00
Orbit: 865 x 976 km, 66.8° (Epoch: 14 February)

Date Brightness Start Highest point End Pass type
(mag) Time Alt. Az. Time Alt. Az. Time Alt. Az.
16 Feb - 04:39:37 10° SSW 04:45:24 65° ESE 04:51:21 10° NE visible
16 Feb - 06:27:04 10° W 06:32:11 29° NW 06:37:27 10° NNE visible
16 Feb - 08:18:32 10° NW 08:20:42 12° NNW 08:22:54 10° N daylight
16 Feb - 10:07:57 10° N 10:10:06 12° NNE 10:12:16 10° NE daylight
16 Feb - 11:53:24 10° NNW 11:58:41 28° NE 12:04:03 10° E daylight
16 Feb - 13:39:22 10° NW 13:45:37 75° WSW 13:51:57 10° SSE daylight
16 Feb - 15:28:05 10° WNW 15:30:56 13° WSW 15:33:47 10° SW daylight
17 Feb - 03:05:19 10° SE 03:08:41 16° ESE 03:12:07 10° ENE visible
17 Feb - 04:48:15 10° SSW 04:54:06 89° WNW 05:00:10 10° NNE visible
17 Feb - 06:36:38 10° W 06:41:17 23° NW 06:46:03 10° NNE visible
17 Feb - 08:28:41 10° NNW 08:30:06 11° N 08:31:32 10° N daylight
17 Feb - 10:16:31 10° N 10:19:27 13° NNE 10:22:26 10° NE daylight
17 Feb - 12:02:01 10° NNW 12:07:43 36° NE 12:13:31 10° ESE daylight
17 Feb - 13:48:14 10° NW 13:54:18 53° WSW 14:00:26 10° S daylight
18 Feb - 03:12:37 10° SSE 03:17:08 24° ESE 03:21:44 10° NE visible
18 Feb - 04:57:05 10° SW 05:02:54 65° NW 05:08:56 10° NNE visible
18 Feb - 06:46:20 10° WNW 06:50:27 19° NNW 06:54:39 10° NNE visible
18 Feb - 08:38:43 10° N 08:39:31 10° N 08:40:19 10° N daylight
18 Feb - 10:25:05 10° NNW 10:28:46 16° NNE 10:32:29 10° ENE daylight
18 Feb - 12:10:40 10° NNW 12:16:40 48° NE 12:22:47 10° ESE daylight
18 Feb - 13:57:14 10° NW 14:02:55 38° WSW 14:08:40 10° S daylight
19 Feb - 03:20:26 10° S 03:25:38 34° ESE 03:30:58 10° NE visible
19 Feb - 05:06:06 10° WSW 05:11:46 48° NW 05:17:38 10° NNE visible
19 Feb - 06:56:13 10° WNW 06:59:42 16° NNW 07:03:14 10° NNE visible
19 Feb - 08:48:03 10° N 08:48:57 10° N 08:49:51 10° NNE daylight
19 Feb - 10:33:39 10° NNW 10:38:00 19° NNE 10:42:24 10° ENE daylight
19 Feb - 12:19:20 10° NNW 12:25:34 65° NE 12:31:52 10° SE daylight
19 Feb - 14:06:22 10° NW 14:11:28 26° WSW 14:16:36 10° SSW daylight
20 Feb - 03:28:37 10° S 03:34:12 49° ESE 03:39:59 10° NE visible
20 Feb - 05:15:20 10° WSW 05:20:43 36° NW 05:26:17 10° NNE visible
20 Feb - 07:06:13 10° NW 07:09:00 13° NNW 07:11:49 10° N visible
20 Feb - 08:56:46 10° N 08:58:21 11° N 08:59:59 10° NNE daylight
20 Feb - 10:42:14 10° NNW 10:47:11 24° NE 10:52:11 10° E daylight
20 Feb - 12:28:05 10° NNW 12:34:22 87° NE 12:40:45 10° SSE daylight
20 Feb - 14:15:50 10° WNW 14:19:56 18° WSW 14:24:04 10° SW daylight
21 Feb - 01:55:59 10° ESE 01:57:42 11° E 01:59:27 10° E visible
21 Feb - 03:37:03 10° SSW 03:42:51 71° ESE 03:48:53 10° NE visible
21 Feb - 05:24:44 10° W 05:29:46 28° NW 05:34:55 10° NNE visible
21 Feb - 07:16:20 10° NNW 07:18:21 12° NNW 07:20:24 10° N daylight
21 Feb - 09:05:22 10° N 09:07:46 12° NNE 09:10:10 10° NE daylight
21 Feb - 10:50:50 10° NNW 10:56:16 30° NE 11:01:46 10° E daylight
21 Feb - 12:36:53 10° NW 12:43:06 69° WSW 12:49:25 10° SSE daylight
21 Feb - 14:26:06 10° W 14:28:20 12° W 14:30:35 10° WSW daylight
22 Feb - 02:02:21 10° SE 02:06:06 18° ESE 02:09:53 10° ENE visible
22 Feb - 03:45:43 10° SW 03:51:35 83° WNW 03:57:41 10° NNE visible
22 Feb - 05:34:19 10° W 05:38:52 22° NW 05:43:32 10° NNE visible
22 Feb - 07:26:28 10° NNW 07:27:46 11° N 07:29:04 10° N daylight
22 Feb - 09:13:57 10° N 09:17:06 14° NNE 09:20:17 10° NE daylight
22 Feb - 10:59:28 10° NNW 11:05:17 39° NE 11:11:11 10° ESE daylight
22 Feb - 12:45:47 10° NW 12:51:47 49° WSW 12:57:51 10° S daylight
23 Feb - 02:09:49 10° SSE 02:14:33 26° ESE 02:19:23 10° NE visible
23 Feb - 03:54:36 10° SW 04:00:24 61° NW 04:06:26 10° NNE visible
23 Feb - 05:44:04 10° WNW 05:48:03 18° NNW 05:52:08 10° NNE visible
23 Feb - 07:36:21 10° N 07:37:11 10° N 07:38:01 10° N daylight
23 Feb - 09:22:31 10° NNW 09:26:23 17° NNE 09:30:19 10° ENE daylight
23 Feb - 11:08:08 10° NNW 11:14:13 52° NE 11:20:24 10° SE daylight
23 Feb - 12:54:47 10° NW 13:00:22 35° WSW 13:06:01 10° S daylight
24 Feb - 02:17:44 10° S 02:23:04 38° ESE 02:28:33 10° NE visible
24 Feb - 04:03:41 10° WSW 04:09:18 44° NW 04:15:07 10° NNE visible
24 Feb - 05:53:58 10° WNW 05:57:19 15° NNW 06:00:43 10° N visible
24 Feb - 07:45:29 10° N 07:46:37 10° N 07:47:44 10° NNE daylight
24 Feb - 09:31:05 10° NNW 09:35:37 20° NNE 09:40:12 10° ENE daylight
24 Feb - 11:16:50 10° NNW 11:23:05 70° NE 11:29:26 10° SE daylight
24 Feb - 13:04:00 10° NW 13:08:54 24° WSW 13:13:51 10° SSW daylight
25 Feb - 02:25:59 10° SSW 02:31:40 54° ESE 02:37:32 10° NE visible
25 Feb - 04:12:57 10° WSW 04:18:16 34° NW 04:23:46 10° NNE visible
25 Feb - 06:04:00 10° NW 06:06:38 13° NNW 06:09:18 10° N visible
25 Feb - 07:54:12 10° N 07:56:01 11° N 07:57:52 10° NNE daylight
25 Feb - 09:39:41 10° NNW 09:44:46 25° NE 09:49:54 10° E daylight
25 Feb - 11:25:35 10° NW 11:31:53 87° SW 11:38:16 10° SSE daylight
25 Feb - 13:13:35 10° WNW 13:17:22 17° WSW 13:21:10 10° SW daylight
